Location: Colossi of Memnon
(25.7167°N, 32.6167°E)
Time: 17:31:11
(UTC+00:00)

N. Korean satellite - Pass Details

Date: 23 September 2021
Orbit: 450 x 495 km, 97.3° (Epoch: 15 October)

Event Time Altitude Azimuth Distance (km) Brightness Sun altitude
Rises 02:57:26 0° 10° (N) 2,523 10.4 -10.1°
Reaches altitude 10° 02:59:29 10° 10° (N) 1,650 9.4 -9.6°
Maximum altitude 03:03:02 85° 283° (WNW) 488 6.5 -8.8°
Drops below altitude 10° 03:06:37 10° 193° (SSW) 1,666 9.1 -8.0°
Sets 03:08:41 0° 193° (SSW) 2,550 10.1 -7.5°
